Погода в Тусоне

США     32°13′16″N   110°55′33″W
темп.,
°C
ветер,
м/с
пор.,
м/с
влажн.,
%
обл.,
%
осадки,
мм/ч
давл.,
гПа
погр.,
м
1 марта, пн
пн123:00+9ссв47120 0.0 1023683
02:00+8ююз12130 0.0 1024258
05:00+7юз11150 0.0 1025134
08:00+7ююз01140 0.0 1027162
11:00+12юв14160 0.0 10251017
14:00+17в57160 0.0 10221820
17:00+18в67170 0.0 10201696
20:00+15вюв69210 0.0 1021733
2 марта, вт
вт223:00+13в59230 0.0 1022430
02:00+12в57240 0.0 1020244
05:00+11вюв58250 0.0 1019246
08:00+11вюв711270 0.0 1019408
11:00+16вюв810190 0.0 1017679
14:00+21вюв67129 0.0 10141001
17:00+22в561124 0.0 10121032
20:00+19в34160 0.0 1014116
3 марта, ср
ср323:00+17вюв34180 0.0 1015100
02:00+15вюв33190 0.0 101558
05:00+14вюв34210 0.0 101569
08:00+15вюв47190 0.0 1016190
11:00+22юв56102 0.0 10151130
14:00+26ююз5997 0.0 10132782
17:00+24ююз12121954 0.0 10132625
20:00+21ююв51332100 0.1 10151924
4 марта, чт
чт423:00+19юв483583 0.1 1016378
02:00+17з3426100 0.0 1016541
05:00+12ссз566481 0.0 1018470
08:00+11ссз45680 0.0 1019480
11:00+14сз34483 0.0 10201205
14:00+18сз45280 0.0 10181782
17:00+19сз55270 0.0 10181783
20:00+16с56330 0.0 1020686
5 марта, пт
пт523:00+15ссв23350 0.0 1022364
02:00+13с12370 0.0 1021134
05:00+12юв23390 0.0 1021201
08:00+13в12350 0.0 1021187
11:00+18в13220 0.0 1019700
14:00+23ссз12130 0.0 1016949
17:00+24ссз33131 0.0 1013841
20:00+21св121745 0.0 101596